Weather History for KUKI - May, 2013

Change the Weather History Date:

Wednesday, May 15, 2013

  Actual Average Record
Temperature  
Mean Temperature 64 °F 62 °F  
Max Temperature 77 °F 77 °F 102 °F (1927)
Min Temperature 50 °F 47 °F 35 °F (1906)
Degree Days  
Heating Degree Days 0 5  
Month to date heating degree days 82  
Since 1 July heating degree days 3028  
Cooling Degree Days 0 2  
Month to date cooling degree days 16  
Year to date cooling degree days 24  
Growing Degree Days 14 (Base 50)    
Moisture  
Dew Point 42 °F    
Average Humidity 48    
Maximum Humidity 68    
Minimum Humidity 27    
Precipitation  
Precipitation 0.00 in 0.04 in 0.48 in (2000)
Month to date precipitation 0.02 0.95  
Year to date precipitation 5.15 22.57  
Since 1 July precipitation 27.85  
Snow  
Snow 0.00 in - - ()
Month to date snowfall 0.0  
Since 1 July snowfall 0.0  
Snow Depth -    
Sea Level Pressure  
Sea Level Pressure 30.02 in    
Wind  
Wind Speed 7 mph (NNW)    
Max Wind Speed 18 mph    
Max Gust Speed 24 mph    
Visibility 10 miles    
Events      
T = Trace of Precipitation, MM = Missing Value Source: NWS Daily Summary

Daily Weather History Graph

Daily Weather History Graph

Search for Another Location

Airport or City:

Trip Planner

Search our weather history database for the weather conditions in past years. The results will help you decide how hot, cold, wet, or windy it might be!

Date:

Astronomy

May. 15, 2013 Rise Set
Actual Time 5:59 AM PDT 8:19 PM PDT
Civil Twilight 5:29 AM PDT 8:49 PM PDT
Nautical Twilight 4:52 AM PDT 9:27 PM PDT
Astronomical Twilight 4:11 AM PDT 10:08 PM PDT
Moon 10:39 AM PDT (5/15) 12:09 AM PDT (5/15)
Length of Visible Light 15h 20m
Length of Day
14h 20m
Waxing Crescent, 28% of the Moon is Illuminated
May 15
Waxing Crescent
May 17
First Quarter
May 24
Full
May 31
Last Quarter
Jun 8
New

Hourly Weather History & Observations

Time (PDT) Temp. Dew Point Humidity Pressure Visibility Wind Dir Wind Speed Gust Speed Precip Events Conditions
12:56 AM 55.0 °F 43.0 °F 64% 30.00 in 10.0 mi NNE 3.5 mph - N/A   Clear
1:56 AM 54.0 °F 43.0 °F 66% 29.99 in 10.0 mi Calm Calm - N/A   Clear
2:56 AM 53.1 °F 43.0 °F 69% 29.99 in 10.0 mi WNW 3.5 mph - N/A   Clear
3:56 AM 53.1 °F 42.1 °F 66% 29.99 in 10.0 mi Calm Calm - N/A   Clear
4:56 AM 52.0 °F 41.0 °F 66% 30.00 in 10.0 mi Calm Calm - N/A   Clear
5:56 AM 52.0 °F 37.9 °F 59% 30.01 in 10.0 mi NNE 5.8 mph - N/A   Clear
6:56 AM 52.0 °F 39.0 °F 61% 30.01 in 10.0 mi Calm Calm - N/A   Clear
7:56 AM 55.0 °F 39.9 °F 57% 30.02 in 10.0 mi SSW 4.6 mph - N/A   Clear
8:56 AM 60.1 °F 39.0 °F 46% 30.02 in 10.0 mi NE 4.6 mph - N/A   Clear
9:56 AM 62.1 °F 37.0 °F 39% 30.04 in 10.0 mi North 9.2 mph - N/A   Clear
10:56 AM 66.0 °F 39.0 °F 37% 30.03 in 10.0 mi North 12.7 mph 18.4 mph N/A   Clear
11:56 AM 68.0 °F 39.9 °F 36% 30.04 in 10.0 mi NNE 12.7 mph - N/A   Clear
12:56 PM 71.1 °F 37.9 °F 30% 30.04 in 10.0 mi North 10.4 mph 19.6 mph N/A   Clear
1:56 PM 73.9 °F 39.0 °F 28% 30.02 in 10.0 mi WNW 11.5 mph 19.6 mph N/A   Clear
2:56 PM 75.9 °F 39.9 °F 27% 30.00 in 10.0 mi WNW 15.0 mph 24.2 mph N/A   Clear
3:56 PM 77.0 °F 42.1 °F 29% 29.99 in 10.0 mi NW 17.3 mph 24.2 mph N/A   Clear
4:56 PM 73.0 °F 43.0 °F 34% 30.00 in 10.0 mi WNW 9.2 mph - N/A   Clear
5:56 PM 70.0 °F 41.0 °F 35% 30.02 in 10.0 mi NNW 4.6 mph - N/A   Clear
6:56 PM 64.9 °F 43.0 °F 45% 30.02 in 10.0 mi North 12.7 mph 20.7 mph N/A   Clear
7:56 PM 61.0 °F 45.0 °F 56% 30.03 in 10.0 mi North 10.4 mph 17.3 mph N/A   Clear
8:56 PM 59.0 °F 45.0 °F 60% 30.04 in 10.0 mi NNW 12.7 mph - N/A   Clear
9:56 PM 59.0 °F 46.0 °F 62% 30.05 in 10.0 mi NW 11.5 mph - N/A   Clear
10:56 PM 57.9 °F 46.9 °F 67% 30.05 in 10.0 mi North 6.9 mph - N/A   Clear
11:56 PM 57.9 °F 46.9 °F 67% 30.04 in 10.0 mi North 8.1 mph - N/A   Partly Cloudy